Wetbulb
56.70 55.52 52.89 51.90 52.10 51.64 51.05 50.49 48.83 46.76 46.69 46.39 46.69 47.15 46.89 46.91 42.97 46.83 45.11 40.78 41.53 40.85 40.33 40.22 40.59 40.61 40.53 40.48 40.65 40.99 41.22 41.30 41.52 41.67 41.45 41.87 42.47 42.88
53.18 52.34 51.52 50.91 50.68 50.64 50.32 49.80 49.20 47.92 45.82 47.29 45.76 46.47 47.08 46.32 44.51 46.45 44.54 41.95 40.35 40.29 39.76 39.29 38.97 39.00 39.21 39.10 39.18 39.03 39.28 39.28 39.49 39.32 39.40 39.84 40.86 41.28
52.16 50.92 50.19 50.50 49.67 49.70 50.05 49.40 48.22 48.47 45.82 44.51 46.26 46.35 46.17 45.95 46.14 46.90 45.55 44.73 41.42 39.91 39.40 38.68 38.30 38.12 37.90 38.08 37.89 37.28 37.37 37.47 37.58 37.45 37.48 38.10 39.13 39.81
49.86 49.60 49.04 49.05 49.70 50.04 49.38 48.56 47.76 47.94 47.29 43.93 45.26 45.26 44.94 45.12 45.58 45.77 44.98 45.01 43.11 39.21 39.25 38.48 38.15 37.81 37.32 37.74 37.44 35.95 35.73 35.83 35.89 35.43 35.32 35.91 36.83 37.68
49.54 48.92 48.78 49.29 48.91 48.97 48.73 47.84 46.91 46.25 46.90 46.17 43.65 45.51 45.05 45.06 45.25 45.64 45.13 44.93 43.89 39.90 39.49 38.91 38.26 37.42 38.18 37.94 37.31 36.01 34.93 35.09 34.76 34.20 33.94 33.59 34.24 35.26
49.81 49.40 48.94 49.12 48.84 48.40 47.84 47.59 46.91 46.07 45.86 45.19 44.48 44.00 44.89 43.96 44.60 43.63 43.57 44.56 43.45 43.88 40.75 41.15 40.29 38.63 37.91 38.08 37.25 36.30 34.80 34.52 34.47 33.97 33.29 32.67 32.61 33.15
48.79 48.08 48.58 42.65 39.31 40.46 47.48 47.05 46.98 45.58 45.18 44.65 43.72 44.21 43.73 43.21 42.28 43.17 41.95 42.47 42.41 42.76 42.19 42.04 40.42 40.92 39.23 39.19 38.40 36.48 35.18 33.87 34.01 34.20 33.81 33.22 32.82 32.81
47.10 46.99 43.91 41.21 39.33 37.70 37.56 34.96 37.32 46.05 44.63 44.65 43.68 43.22 43.02 43.17 43.36 42.16 40.68 39.89 38.20 43.11 41.01 41.11 43.33 41.49 41.68 40.99 36.01 35.66 35.82 34.36 33.36 33.42 33.57 33.49 33.54 33.28
48.23 46.76 43.69 44.55 42.19 41.95 36.17 35.21 35.09 35.54 35.80 43.90 43.97 43.77 43.21 43.49 42.78 41.12 40.46 39.56 39.37 41.26 40.47 38.62 41.40 39.45 40.83 38.78 35.84 34.83 34.66 35.31 33.77 33.12 32.80 33.05 33.21 34.04
49.29 48.50 46.67 44.86 46.02 44.06 42.13 43.36 42.30 41.84 42.16 43.25 44.85 43.91 44.29 43.94 43.52 41.96 41.10 40.47 40.65 40.41 39.58 35.52 38.12 35.99 39.94 40.47 35.64 34.90 34.54 34.77 35.04 33.64 33.29 32.97 33.32 33.79
49.16 49.15 47.56 46.25 39.29 38.95 44.66 43.87 43.74 41.68 36.02 36.17 35.82 35.73 35.53 35.51 36.64 41.47 37.64 36.18 36.65 37.25 38.90 35.86 35.65 35.68 36.35 39.49 40.23 36.06 35.00 35.13 34.94 35.65 35.29 34.33 33.47 33.89
48.45 48.64 39.78 44.77 36.81 36.39 44.11 44.38 42.59 42.94 41.28 39.27 39.07 36.46 36.36 37.70 35.02 39.07 39.79 35.46 35.47 33.77 38.78 35.58 34.72 35.30 34.01 40.60 40.54 39.72 39.85 35.38 35.62 36.66 36.86 36.34 34.49 35.54
47.21 46.86 46.72 35.89 36.25 36.01 36.01 44.79 43.24 43.80 38.04 42.25 42.56 42.80 42.89 43.34 42.42 41.00 40.62 39.37 36.38 34.84 38.61 37.73 36.17 34.81 33.18 33.92 36.93 39.78 40.23 39.44 37.84 38.00 37.69 37.10 36.12 34.04
47.18 47.70 46.61 35.75 35.48 34.94 35.06 35.20 34.88 35.41 42.49 41.15 41.46 41.15 41.55 41.71 42.05 41.97 40.68 41.12 40.73 38.46 39.89 38.30 37.08 35.29 33.08 32.17 31.86 37.63 38.30 39.93 38.81 38.19 37.41 36.36 37.09 35.37
48.28 45.48 37.50 35.68 34.86 33.86 34.17 33.64 31.21 39.58 42.09 40.89 40.33 40.84 41.73 42.42 41.56 40.92 40.91 40.54 40.63 40.47 39.98 40.49 39.17 37.21 35.41 33.41 32.40 34.36 34.81 38.13 39.72 38.27 37.79 37.26 37.28 37.98
36.84 41.78 37.83 36.76 35.99 38.11 35.85 34.91 38.66 40.81 42.04 42.21 42.15 42.96 43.15 42.85 41.09 41.39 38.66 38.94 38.31 39.00 40.88 40.96 40.52 38.76 36.80 35.64 35.57 34.35 35.32 34.35 38.92 38.48 36.55 37.01 38.48 39.41
44.21 45.23 42.58 42.32 40.36 40.67 41.40 40.22 40.42 41.01 41.96 43.10 43.32 42.40 41.69 40.99 40.21 42.14 39.37 38.10 37.58 37.52 38.15 39.71 40.24 40.17 40.33 37.52 35.19 36.22 34.98 34.71 38.50 37.20 35.28 34.66 36.72 37.12
42.70 45.00 43.36 42.84 42.38 42.33 42.30 41.76 41.47 39.08 42.57 42.89 42.36 42.10 40.62 40.51 40.11 40.55 39.99 37.44 36.48 38.03 38.55 39.71 38.07 37.10 37.20 38.09 38.34 37.36 37.17 35.90 37.91 37.14 36.28 34.39 34.65 37.82
43.63 44.97 44.75 44.19 43.62 44.19 43.48 43.04 42.19 42.77 42.72 42.99 42.27 41.66 41.49 41.55 39.08 39.06 38.95 37.94 35.67 36.90 37.90 37.97 36.83 35.50 33.27 33.10 39.93 34.47 36.27 36.54 35.74 34.60 36.65 36.08 34.80 35.78
44.37 44.88 45.19 45.97 45.62 45.03 44.34 43.63 43.69 43.67 42.85 42.43 42.39 42.26 42.05 40.54 39.11 37.90 37.70 37.30 36.73 36.51 36.01 37.49 36.98 34.96 33.87 34.54 34.88 36.57 32.08 35.98 35.34 35.28 35.49 37.55 37.47 34.81
44.04 45.26 46.63 47.09 46.86 47.02 46.09 45.03 44.04 43.09 42.89 42.11 42.34 41.76 40.68 40.94 38.98 38.73 38.66 34.96 35.27 36.03 34.80 35.62 38.13 35.06 38.78 38.65 34.38 34.46 37.81 33.52 35.36 35.36 34.61 33.92 33.29 34.50
45.07 44.92 46.87 47.92 48.28 48.12 47.68 45.81 44.46 43.08 42.59 41.67 41.49 40.92 40.33 40.55 39.59 38.91 38.92 38.05 36.84 36.16 35.75 37.67 38.81 38.16 36.53 34.13 32.95 33.98 36.59 39.13 35.45 32.74 31.86 32.62 33.15 30.68
46.93 46.77 46.27 47.67 48.58 48.88 48.45 46.57 44.77 43.74 42.95 42.49 42.12 41.79 36.52 39.90 40.38 40.52 39.69 38.72 38.26 36.60 34.97 35.23 36.94 37.05 34.84 34.34 33.96 34.80 34.93 33.98 35.88 35.22 37.10 32.62 31.38 31.11
MSLP
1025.60 1025.85 1026.02 1026.30 1026.28 1026.38 1026.46 1026.48 1026.46 1026.27 1027.15 1029.19 1029.48 1030.94 1030.92 1031.36 1032.17 1031.65 1032.15 1033.24 1033.13 1033.07 1032.99 1032.79 1032.49 1032.38 1032.16 1031.87 1031.46 1031.01 1030.61 1030.21 1029.68 1029.18 1028.74 1028.21 1027.58 1026.95
1025.74 1026.00 1026.29 1026.71 1026.78 1026.86 1026.99 1027.05 1027.23 1027.05 1027.37 1028.63 1029.98 1030.76 1031.14 1031.05 1031.98 1031.71 1032.16 1032.95 1033.29 1033.15 1033.19 1033.18 1033.09 1032.88 1032.62 1032.33 1032.01 1031.64 1031.19 1030.74 1030.20 1029.74 1029.30 1028.86 1028.23 1027.59
1026.06 1026.23 1026.62 1026.96 1027.13 1027.28 1027.38 1027.53 1027.73 1027.70 1027.96 1029.46 1029.98 1030.93 1031.18 1031.27 1031.46 1031.45 1031.69 1032.13 1033.03 1033.26 1033.34 1033.39 1033.28 1033.15 1032.97 1032.74 1032.42 1032.04 1031.61 1031.13 1030.67 1030.26 1029.87 1029.47 1028.90 1028.28
1026.23 1026.60 1026.87 1027.22 1027.71 1027.85 1027.89 1028.00 1028.44 1028.65 1028.39 1029.20 1029.92 1030.51 1031.12 1031.58 1031.66 1031.34 1031.31 1031.31 1031.99 1033.19 1033.32 1033.38 1033.30 1033.24 1033.13 1032.90 1032.70 1032.38 1031.95 1031.52 1031.13 1030.73 1030.45 1030.08 1029.56 1028.98
1026.38 1026.61 1026.92 1027.29 1027.87 1028.17 1028.29 1028.47 1028.70 1028.92 1029.11 1029.10 1029.91 1030.49 1031.07 1031.47 1031.08 1031.13 1031.30 1031.42 1031.31 1032.57 1033.02 1033.17 1033.16 1033.15 1032.93 1032.93 1032.87 1032.61 1032.24 1031.82 1031.43 1031.13 1030.86 1030.54 1030.10 1029.64
1026.58 1026.81 1027.01 1027.24 1028.04 1028.60 1028.81 1029.03 1029.17 1029.29 1029.57 1029.60 1029.82 1030.26 1030.68 1031.45 1031.18 1030.87 1030.79 1030.97 1031.29 1031.32 1032.02 1032.23 1032.56 1032.89 1032.92 1032.69 1032.79 1032.72 1032.47 1032.08 1031.71 1031.43 1031.17 1030.87 1030.50 1030.10
1026.91 1027.03 1027.55 1028.87 1029.50 1029.85 1029.37 1029.43 1029.65 1029.58 1029.59 1029.65 1029.83 1030.16 1030.55 1030.89 1031.11 1031.28 1031.25 1031.24 1031.68 1031.79 1031.31 1031.36 1031.95 1032.23 1032.55 1032.23 1032.41 1032.70 1032.57 1032.28 1031.99 1031.74 1031.46 1031.14 1030.74 1030.38
1026.78 1027.31 1028.48 1029.22 1029.78 1030.45 1030.58 1030.89 1030.95 1030.18 1030.15 1029.78 1029.85 1029.99 1030.60 1030.99 1031.28 1031.45 1031.68 1031.56 1031.68 1032.05 1031.70 1030.99 1030.88 1031.06 1031.26 1031.63 1032.74 1032.71 1032.57 1032.41 1032.18 1031.98 1031.69 1031.30 1030.89 1030.56
1026.48 1027.28 1027.90 1028.41 1029.38 1029.88 1030.95 1031.13 1031.33 1031.42 1031.53 1030.71 1030.02 1030.26 1030.57 1031.07 1031.47 1031.69 1031.78 1031.90 1031.61 1031.71 1031.91 1031.71 1031.53 1031.68 1031.82 1032.24 1032.64 1032.56 1032.44 1032.37 1032.22 1032.04 1031.78 1031.36 1030.89 1030.48
1026.33 1026.82 1027.19 1028.33 1028.54 1029.32 1029.81 1029.96 1030.33 1030.65 1030.92 1030.47 1030.41 1030.71 1030.97 1031.39 1031.51 1031.75 1031.96 1031.96 1031.94 1032.27 1032.58 1032.30 1032.56 1032.59 1031.96 1031.80 1032.35 1032.39 1032.27 1032.24 1032.14 1032.00 1031.78 1031.40 1030.83 1030.19
1026.02 1026.50 1026.92 1027.73 1029.06 1029.60 1029.26 1029.51 1029.81 1030.51 1031.85 1032.02 1032.04 1032.23 1032.42 1032.56 1032.60 1031.98 1032.38 1032.43 1032.11 1032.37 1032.92 1032.98 1032.88 1032.72 1032.60 1032.13 1031.81 1032.10 1032.05 1032.10 1031.95 1031.73 1031.59 1031.34 1030.92 1030.10
1025.80 1026.35 1027.49 1027.28 1029.02 1029.75 1029.50 1029.39 1029.54 1029.95 1030.37 1031.24 1031.62 1032.19 1032.38 1032.35 1032.70 1032.48 1032.14 1032.39 1032.45 1032.72 1032.66 1032.96 1032.84 1032.75 1032.27 1031.65 1031.76 1031.75 1031.63 1031.88 1031.68 1031.44 1031.16 1031.03 1030.87 1030.35
1025.34 1025.86 1026.61 1028.46 1028.88 1029.59 1029.91 1028.99 1029.22 1029.50 1030.76 1030.57 1030.65 1030.60 1030.69 1030.83 1031.35 1031.90 1031.90 1032.10 1032.36 1032.43 1032.38 1032.54 1032.66 1032.68 1032.57 1032.07 1031.72 1031.53 1031.44 1031.32 1031.30 1031.11 1030.86 1030.71 1030.58 1030.54
1024.70 1025.17 1025.78 1027.97 1028.94 1029.48 1029.99 1030.19 1030.31 1030.30 1030.31 1030.55 1030.50 1030.54 1030.65 1030.84 1031.08 1031.37 1031.67 1031.63 1031.93 1032.04 1032.08 1032.25 1032.29 1032.44 1032.37 1032.08 1031.62 1031.19 1031.16 1030.95 1030.92 1030.79 1030.78 1030.58 1030.16 1030.08
1024.24 1024.54 1026.24 1027.56 1028.63 1029.58 1029.85 1030.11 1030.69 1030.06 1030.00 1030.12 1030.13 1030.16 1030.40 1030.53 1030.78 1031.16 1031.21 1031.23 1031.20 1031.24 1031.24 1031.15 1031.43 1031.79 1032.01 1031.74 1031.48 1031.10 1030.98 1030.56 1030.32 1030.34 1030.22 1030.03 1029.86 1029.71
1025.81 1025.66 1026.53 1027.34 1028.04 1028.34 1029.36 1029.86 1029.51 1029.35 1029.42 1029.47 1029.50 1029.55 1029.69 1029.95 1030.04 1030.32 1030.89 1031.01 1030.93 1030.83 1030.61 1030.51 1030.48 1030.67 1030.91 1031.02 1030.88 1030.60 1030.50 1030.37 1030.06 1029.99 1029.78 1029.46 1029.17 1029.08
1024.62 1025.31 1026.56 1026.89 1027.35 1027.57 1027.93 1028.39 1028.69 1028.79 1028.89 1028.87 1028.91 1029.01 1029.19 1029.40 1029.46 1029.40 1030.04 1030.40 1030.27 1030.04 1030.00 1030.09 1030.11 1030.04 1030.04 1030.15 1030.02 1029.87 1029.92 1029.88 1029.65 1029.52 1029.36 1028.98 1028.65 1028.46
1024.31 1024.36 1025.10 1025.56 1025.78 1026.11 1026.48 1026.96 1027.44 1027.72 1027.81 1028.04 1028.27 1028.45 1028.61 1028.78 1028.84 1028.99 1029.28 1029.90 1029.87 1029.56 1029.36 1029.37 1029.68 1029.73 1029.60 1029.24 1029.06 1029.12 1029.20 1029.30 1029.15 1028.95 1028.83 1028.52 1028.02 1027.78
1023.50 1023.40 1023.63 1024.06 1024.47 1024.75 1025.20 1025.59 1025.93 1026.42 1026.94 1027.23 1027.47 1027.71 1027.86 1027.98 1028.33 1028.54 1028.77 1029.04 1029.24 1029.28 1029.12 1029.10 1029.26 1029.21 1028.95 1028.50 1028.52 1028.71 1028.54 1028.57 1028.55 1028.35 1028.25 1028.07 1027.65 1027.39
1022.36 1022.22 1022.41 1022.80 1023.21 1023.52 1023.96 1024.44 1024.94 1025.42 1025.86 1026.35 1026.59 1026.90 1027.10 1027.34 1027.63 1027.84 1028.02 1028.12 1028.33 1028.50 1028.54 1028.52 1028.56 1028.64 1028.43 1028.00 1027.93 1028.14 1028.38 1028.21 1028.16 1027.83 1027.55 1027.25 1026.86 1026.42
1021.32 1021.33 1021.44 1021.69 1022.09 1022.47 1022.93 1023.48 1023.97 1024.36 1024.79 1025.31 1025.63 1025.98 1026.32 1026.56 1026.77 1027.00 1027.13 1027.42 1027.69 1027.77 1027.74 1027.65 1027.44 1027.67 1027.62 1027.55 1027.51 1027.54 1027.45 1027.57 1027.46 1027.32 1027.21 1027.02 1026.59 1026.02
1020.04 1020.22 1020.35 1020.60 1020.91 1021.30 1021.77 1022.40 1023.00 1023.47 1023.82 1024.29 1024.55 1024.94 1025.39 1025.73 1025.81 1026.00 1026.11 1026.36 1026.63 1026.76 1026.68 1026.74 1026.81 1027.06 1027.18 1027.08 1026.75 1026.63 1026.42 1026.31 1026.65 1026.80 1026.78 1026.70 1026.44 1025.88
1018.59 1018.95 1019.43 1019.61 1019.87 1020.18 1020.64 1021.18 1021.57 1022.04 1022.51 1022.97 1023.44 1023.75 1024.30 1024.51 1024.73 1024.92 1025.17 1025.33 1025.53 1025.85 1026.12 1026.21 1026.23 1026.39 1026.51 1026.52 1026.26 1025.87 1025.69 1025.94 1025.77 1025.58 1025.27 1025.12 1025.34 1025.46
Wind_Speed
5 5 5 4 4 4 3 2 4 2 5 5 3 5 3 5 5 4 8 7 9 11 12 13 15 16 16 17 17 18 19 19 20 21 21 21 22 22
6 7 6 4 5 4 3 3 3 4 3 1 6 4 3 4 4 1 8 10 8 10 11 12 13 14 15 16 16 17 17 18 19 20 20 20 21 21
8 8 7 5 4 4 4 4 4 4 6 4 5 4 5 3 3 1 9 8 8 9 8 8 9 11 12 14 15 16 17 18 19 20 20 20 20 21
9 8 8 6 6 5 4 6 5 4 3 6 3 5 4 4 0 0 1 3 8 8 7 5 7 7 10 12 14 16 16 17 17 18 18 18 19 20
9 9 8 8 5 5 5 5 4 4 2 2 5 2 3 1 3 4 1 3 3 13 10 7 6 3 5 9 12 14 15 16 16 17 17 17 18 18
8 8 8 7 7 5 5 5 4 4 3 3 3 3 1 2 2 2 3 2 2 1 4 2 10 8 3 8 10 12 13 15 16 16 16 16 16 17
8 8 7 11 14 11 1 4 4 3 3 3 3 2 2 2 1 2 2 4 3 3 4 6 7 6 6 6 8 10 10 12 13 14 14 14 15 16
10 9 8 8 10 10 9 14 10 1 2 1 2 1 2 2 1 2 1 2 0 0 5 3 3 3 3 6 6 5 7 9 11 12 13 13 12 11
10 10 9 8 9 8 7 8 8 7 6 5 1 1 2 1 2 1 0 1 3 3 5 2 5 5 6 5 5 4 3 5 8 9 11 12 13 11
10 10 9 10 10 9 8 8 7 6 3 1 2 3 2 2 1 2 2 4 1 2 6 2 4 4 5 1 5 1 1 2 6 9 10 12 14 16
10 10 9 11 12 3 8 7 7 6 6 6 7 7 5 5 5 1 0 0 2 1 1 2 2 4 4 5 3 2 1 2 5 8 10 10 13 19
10 10 4 6 16 9 7 7 7 7 7 7 6 5 5 6 5 5 2 2 1 3 3 1 2 3 3 4 2 1 2 5 7 11 11 9 8 7
9 9 9 14 14 12 8 5 4 8 3 4 3 3 4 6 6 5 5 4 3 4 2 2 2 2 3 4 4 3 3 2 2 4 6 7 7 4
9 8 9 18 13 12 8 7 6 3 5 5 4 4 4 4 4 4 5 3 4 6 5 6 2 3 3 4 4 2 4 3 3 2 2 7 9 7
8 8 15 17 15 9 6 9 5 6 6 6 6 5 5 4 6 6 7 7 8 9 8 8 4 5 4 4 5 5 3 3 4 3 2 4 5 3
5 8 9 10 9 7 9 7 7 8 7 7 6 6 5 5 5 6 5 5 5 5 9 9 9 7 6 6 6 5 5 3 3 3 3 4 4 4
9 9 8 8 9 9 9 9 8 8 8 6 6 6 6 6 7 6 5 5 7 6 6 6 7 9 7 7 6 5 5 5 5 4 4 5 4 5
10 10 9 9 10 10 10 9 9 9 9 8 7 7 6 6 6 6 6 6 7 7 6 4 4 6 7 9 11 6 4 5 5 6 6 7 6 4
12 11 11 10 10 10 9 10 10 9 11 8 8 8 7 7 5 6 6 6 6 7 6 5 4 6 8 8 2 10 6 5 5 6 6 6 7 6
11 12 11 10 10 10 10 10 9 9 9 9 9 9 8 7 7 7 7 8 7 7 7 6 7 7 9 8 5 3 12 7 7 7 6 6 8 13
13 12 11 11 10 10 9 9 10 10 10 10 9 9 7 8 8 8 8 8 7 7 8 8 8 10 7 6 6 5 6 16 12 8 7 7 8 8
12 13 12 11 11 10 10 10 10 10 10 9 10 8 8 9 9 10 9 9 9 9 9 7 7 4 5 8 10 8 6 7 10 14 16 13 7 5
12 12 12 11 11 10 10 10 11 11 11 11 11 10 9 10 10 10 10 10 9 9 9 8 7 7 7 9 11 9 8 4 5 7 8 18 20 19
Wind_Direction
129 144 117 97 83 67 52 7 329 216 128 129 124 96 66 90 21 45 82 83 83 63 49 41 36 34 29 26 24 23 21 19 17 17 16 12 9 9
135 129 118 110 104 95 87 65 26 339 106 76 99 85 26 90 98 251 111 128 97 81 64 52 42 35 30 27 24 22 21 20 20 18 16 14 11 11
131 127 116 127 115 106 97 73 57 352 109 114 105 121 109 35 74 76 147 162 115 94 82 64 49 37 31 31 27 24 23 22 21 19 17 15 14 14
134 135 129 120 113 111 95 79 71 30 86 138 123 136 65 102 49 173 98 77 111 131 130 103 74 57 40 35 29 25 25 24 23 22 20 18 17 15
147 144 137 136 135 119 113 114 110 91 73 144 129 124 106 350 201 162 98 160 126 148 163 168 152 150 85 62 40 29 26 26 27 26 23 22 20 16
146 142 142 139 135 135 121 121 122 128 128 140 129 136 41 125 264 319 170 184 55 351 137 153 173 177 218 109 62 36 27 27 29 28 28 26 22 18
147 145 104 76 62 55 126 150 149 159 168 169 148 168 141 182 328 53 316 309 126 341 316 189 169 186 194 128 58 45 27 26 26 23 24 23 25 24
159 140 125 116 85 67 63 62 51 341 152 232 140 207 136 154 208 76 281 333 254 272 310 300 343 128 335 78 79 32 21 19 18 13 12 9 6 6
165 154 165 129 148 137 99 98 75 58 38 341 132 65 182 104 135 147 13 280 267 68 309 327 7 6 342 122 123 58 15 357 359 0 356 355 348 341
173 172 177 155 163 161 164 159 145 146 118 346 63 107 66 140 206 109 248 295 40 358 14 281 12 307 302 71 147 141 48 318 333 336 340 343 338 329
182 183 181 174 138 181 182 176 171 138 110 83 79 78 67 32 359 127 285 261 269 146 101 295 295 294 293 303 315 179 165 270 318 312 308 322 336 323
185 182 106 192 152 178 210 188 192 169 184 167 170 173 189 186 217 261 221 207 218 249 166 265 294 313 293 222 247 338 315 194 304 301 295 292 319 330
188 190 183 143 160 177 228 214 216 174 151 181 219 204 209 192 188 208 216 187 217 243 188 240 260 288 275 297 285 263 291 272 287 284 324 327 291 295
196 193 174 153 169 172 190 130 121 161 166 206 211 215 218 216 216 206 219 214 219 227 229 220 204 229 269 291 284 300 296 265 233 262 315 313 301 245
195 188 141 157 156 168 174 149 169 202 202 212 218 218 227 220 206 208 223 227 233 216 228 242 213 205 207 247 272 284 293 274 267 248 230 273 285 282
123 118 140 157 174 181 168 184 208 209 217 219 222 216 207 206 228 196 209 218 242 243 258 236 235 228 230 227 245 266 274 269 292 273 264 267 272 248
182 150 165 178 186 196 196 197 202 218 220 227 223 217 211 213 222 212 199 232 241 233 223 220 239 246 234 247 262 260 264 273 271 274 282 279 264 242
193 194 194 197 198 198 201 196 201 207 216 211 217 221 215 216 224 222 201 218 247 250 248 214 210 249 242 243 227 252 250 254 268 269 269 278 277 268
198 207 202 201 203 203 202 203 204 207 206 218 212 217 219 218 205 220 219 225 227 253 246 237 246 248 263 270 202 226 251 256 269 269 261 265 274 270
206 208 211 204 204 206 204 206 208 202 206 210 214 215 215 212 213 214 225 224 224 226 239 243 223 230 244 262 260 206 211 249 265 275 276 265 260 254
213 215 214 210 209 209 205 208 207 208 204 208 214 215 206 208 213 219 226 222 219 228 242 238 240 218 232 274 269 258 244 213 233 256 279 289 293 291
209 218 215 217 212 210 203 202 208 208 208 207 210 210 197 207 216 217 217 221 218 227 237 242 247 205 221 241 259 261 237 224 215 229 235 235 259 272
211 211 214 218 216 213 207 205 207 210 211 211 213 208 194 208 215 221 218 221 226 218 223 239 230 225 231 241 254 264 268 210 241 264 263 222 229 244